Content
SEND FEEDBACK

Daily
Averages
Monthly
Summary
United States of America

FARIBAULT, MINNESOTA


Home > North America > United States > Minnesota
Elevation: 1054 feet     Latitude: 44 20N     Longitude: 093 19W

WEATHER
 
SELECT A DAY
Number of Records: 458,983;   Date Range: 1/1/95 - 10/29/14
 
SHARE

PRINT THIS DATA

[ ← Previous Day ]
WEATHER ALMANAC - JANUARY 23, 2013
[ Next Day → ]
[ °C ]   °F
Weather ElementAverageHighLow
Temperature8.5 °F15.8 °F (10:54 am)-4 °F (11:54 pm)
Dewpoint1.6 °F10.4 °F (6:14 am)-14.8 °F (10:54 pm)
Humidity74.4 %100 % (6:14 am)55 % (9:54 pm)
Barometer30.25 in30.57 in (11:54 pm)30.12 in (7:14 am)
Wind Speed9.3 mph24.2 mph (1:54 pm)
Wind Gust33.4 mph (3:34 pm)
Weather ElementAverage
Visibility7.9 mi
Wind DirectionSW (219.7 °)

Weather ElementTotal
Precipitation---
Heating Degree Days59.1 (Base 65)
Averaged from 70 records on January 23, 2013
WEATHER CONDITIONS BREAKOUT
WIND DIRECTION BREAKOUT
WEATHER BY HOUR - JANUARY 23, 2013
[ °C ]   °F
Local TimeTemperatureDewpointHumidityBarometerVisibilityWind DirectionWind SpeedGust SpeedPrecipitationEventsConditions
12:34 AM6.8 °F1.4 °F79 %30.21 in10.0 miSouth (170°)3.5 mphOvercast
12:54 AM8.6 °F1.4 °F73 %30.20 in10.0 miCalmOvercast
1:14 AM8.6 °F1.4 °F73 %30.19 in10.0 miCalmOvercast
1:34 AM8.6 °F1.4 °F73 %30.19 in10.0 miCalmOvercast
1:54 AM8.6 °F3.2 °F79 %30.18 in10.0 miCalmOvercast
2:14 AM8.6 °F3.2 °F79 %30.18 in10.0 miCalmOvercast
2:34 AM8.6 °F3.2 °F79 %30.18 in10.0 miCalmOvercast
2:54 AM10.4 °F5.0 °F79 %30.17 in7.0 miSSE (160°)3.5 mphSnowLight Snow
3:14 AM10.4 °F5.0 °F79 %30.17 in7.0 miCalmSnowLight Snow
3:34 AM10.4 °F6.8 °F85 %30.16 in4.0 miCalmSnowLight Snow
3:54 AM10.4 °F6.8 °F85 %30.15 in4.0 miCalmSnowLight Snow
4:14 AM10.4 °F6.8 °F85 %30.15 in2.5 miCalmSnowLight Snow
4:34 AM10.4 °F8.6 °F92 %30.15 in2.5 miCalmSnowLight Snow
4:54 AM10.4 °F8.6 °F92 %30.14 in3.0 miCalmSnowLight Snow
5:14 AM10.4 °F8.6 °F92 %30.14 in2.0 miCalmSnowLight Snow
5:34 AM10.4 °F8.6 °F92 %30.13 in4.0 miCalmSnowLight Snow
5:54 AM10.4 °F8.6 °F92 %30.13 in4.0 miSouth (190°)3.5 mphSnowLight Snow
6:14 AM10.4 °F10.4 °F100 %30.13 in3.0 miCalmSnowLight Snow
6:34 AM10.4 °F10.4 °F100 %30.13 in2.5 miCalmSnowLight Snow
6:55 AM10.4 °F10.4 °F100 %30.13 in4.0 miCalmSnowLight Snow
7:14 AM10.4 °F10.4 °F100 %30.12 in3.0 miCalmSnowLight Snow
7:34 AM10.4 °F8.6 °F92 %30.12 in4.0 miCalmSnowLight Snow
7:54 AM10.4 °F8.6 °F92 %30.13 in3.0 miSW (230°)3.5 mphSnowLight Snow
8:14 AM10.4 °F8.6 °F92 %30.14 in1.8 miWSW (240°)3.5 mphSnowLight Snow
8:34 AM10.4 °F8.6 °F92 %30.14 in3.0 miWSW (240°)4.6 mphSnowLight Snow
8:54 AM10.4 °F8.6 °F92 %30.14 in5.0 miWSW (250°)5.8 mphSnowLight Snow
9:15 AM12.2 °F10.4 °F92 %30.14 in10.0 miWest (270°)5.8 mphScattered Clouds
9:34 AM12.2 °F10.4 °F92 %30.15 in7.0 miWest (280°)8.1 mphSnowLight Snow
9:54 AM12.2 °F10.4 °F92 %30.16 in10.0 miWest (280°)8.1 mphSnowLight Snow
10:14 AM12.2 °F8.6 °F85 %30.17 in10.0 miWNW (300°)9.2 mphScattered Clouds
10:34 AM14.0 °F8.6 °F79 %30.17 in10.0 miNW (310°)9.2 mph17.3 mphMostly Cloudy
10:54 AM15.8 °F8.6 °F73 %30.17 in10.0 miWNW (290°)8.1 mphOvercast
11:14 AM15.8 °F8.6 °F73 %30.18 in10.0 miWNW (290°)16.1 mph19.6 mphOvercast
11:34 AM15.8 °F8.6 °F73 %30.16 in10.0 miWest (280°)12.7 mph19.6 mphMostly Cloudy
11:55 AM15.8 °F10.4 °F79 %30.16 in7.0 miWNW (290°)12.7 mph20.7 mphSnowLight Snow
12:14 PM15.8 °F10.4 °F79 %30.16 in4.0 miWest (280°)16.1 mph21.9 mphSnowLight Snow
12:34 PM15.8 °F10.4 °F79 %30.17 in5.0 miWNW (290°)17.3 mph25.3 mphSnowLight Snow
12:54 PM15.8 °F10.4 °F79 %30.17 in5.0 miWNW (290°)18.4 mph24.2 mphSnowLight Snow
1:14 PM15.8 °F10.4 °F79 %30.16 in7.0 miWNW (300°)13.8 mph25.3 mphMostly Cloudy
1:34 PM15.8 °F6.8 °F68 %30.16 in10.0 miWNW (290°)21.9 mph25.3 mphMostly Cloudy
1:54 PM15.8 °F5.0 °F62 %30.17 in10.0 miWest (280°)24.2 mph27.6 mphScattered Clouds
2:14 PM15.8 °F5.0 °F62 %30.18 in10.0 miWNW (300°)17.3 mph29.9 mphClear
2:34 PM14.0 °F3.2 °F62 %30.19 in10.0 miNW (310°)21.9 mph29.9 mphClear
2:54 PM12.2 °F1.4 °F62 %30.22 in10.0 miWNW (300°)23.0 mph29.9 mphClear
3:14 PM12.2 °F1.4 °F62 %30.23 in10.0 miWNW (300°)23.0 mph27.6 mphClear
3:34 PM12.2 °F-0.4 °F57 %30.24 in10.0 miNW (310°)19.6 mph33.4 mphClear
3:54 PM10.4 °F-2.2 °F57 %30.26 in10.0 miNW (310°)18.4 mph31.1 mphClear
4:14 PM8.6 °F-0.4 °F67 %30.27 in10.0 miNW (310°)18.4 mph25.3 mphClear
4:34 PM8.6 °F-2.2 °F62 %30.29 in10.0 miWNW (300°)19.6 mph28.8 mphClear
4:54 PM6.8 °F-2.2 °F67 %30.31 in10.0 miNW (310°)15.0 mph21.9 mphClear
5:14 PM6.8 °F-2.2 °F67 %30.32 in10.0 miNW (310°)12.7 mph24.2 mphClear
5:34 PM5.0 °F-4.0 °F66 %30.34 in10.0 miNW (310°)15.0 mph20.7 mphClear
5:54 PM5.0 °F-5.8 °F61 %30.35 in10.0 miNW (320°)18.4 mph28.8 mphClear
6:14 PM3.2 °F-7.6 °F61 %30.38 in10.0 miNNW (330°)15.0 mph23.0 mphClear
6:34 PM3.2 °F-7.6 °F61 %30.39 in10.0 miNNW (330°)18.4 mph25.3 mphClear
6:54 PM3.2 °F-9.4 °F56 %30.40 in10.0 miNW (320°)16.1 mph24.2 mphClear
7:14 PM1.4 °F-7.6 °F66 %30.41 in10.0 miNNW (330°)12.7 mph20.7 mphClear
7:34 PM1.4 °F-9.4 °F61 %30.42 in10.0 miNNW (340°)15.0 mphClear
7:54 PM1.4 °F-9.4 °F61 %30.44 in10.0 miNNW (340°)11.5 mphClear
8:14 PM1.4 °F-11.2 °F56 %30.45 in10.0 miNNW (340°)12.7 mphClear
8:34 PM1.4 °F-11.2 °F56 %30.45 in10.0 miNNW (340°)17.3 mphClear
9:14 PM-0.4 °F-11.2 °F60 %30.48 in10.0 miNorth (350°)9.2 mph18.4 mphClear
9:34 PM-0.4 °F-11.2 °F60 %30.49 in10.0 miNorth (360°)6.9 mphClear
9:54 PM-0.4 °F-13.0 °F55 %30.50 in10.0 miNorth (360°)9.2 mphClear
10:14 PM-2.2 °F-13.0 °F60 %30.50 in10.0 miNorth (360°)10.4 mph16.1 mphClear
10:34 PM-2.2 °F-13.0 °F60 %30.52 in10.0 miNorth (360°)10.4 mphClear
10:54 PM-2.2 °F-14.8 °F55 %30.53 in10.0 miNorth (360°)11.5 mphClear
11:14 PM-2.2 °F-13.0 °F60 %30.54 in10.0 miNorth (350°)9.2 mphClear
11:34 PM-2.2 °F-14.8 °F55 %30.55 in10.0 miNorth (360°)9.2 mphClear
11:54 PM-4.0 °F-14.8 °F60 %30.57 in10.0 miNorth (360°)5.8 mph9.2 mphClear
Hourly data recorded from KFBL, located miles away from Faribault, Minnesota







STORIES FROM OUR PARTNERS